Wind_Speed
20 14 17 15 14 19 24 28 30 32 27 25 29 38 40 34 25 33 32 37 48 55 43 43 38 37 44 41 41 39 36 37 38 40 42 41 40 37 38 36 33 31 29 29
16 14 12 13 16 21 21 24 32 31 26 19 25 33 27 31 31 18 23 34 34 41 51 42 44 42 44 44 42 41 40 37 38 40 39 40 42 42 40 39 37 34 33 31
13 12 12 16 18 21 20 23 28 29 26 21 25 31 17 17 21 16 24 28 34 38 36 48 41 46 43 44 46 44 42 39 39 39 40 38 41 46 45 43 41 39 37 35
8 13 13 18 22 23 30 19 26 24 15 16 9 5 4 2 9 20 26 28 31 31 35 40 41 45 44 42 44 46 44 43 42 41 38 37 38 39 42 42 40 41 41 39
9 9 18 25 28 24 28 18 13 14 15 16 19 10 6 3 6 7 19 25 27 27 28 28 40 43 42 43 44 45 41 41 41 41 40 40 40 40 36 34 35 36 37 41
8 11 19 22 20 12 12 14 13 9 8 7 19 12 11 9 10 13 4 9 21 26 28 25 28 44 39 40 45 45 44 44 42 40 38 39 39 37 35 34 33 33 36 38
8 7 18 24 21 6 10 8 4 2 3 5 5 7 13 10 17 20 22 17 9 18 26 23 29 33 48 42 43 45 47 44 45 44 42 40 39 39 38 39 39 38 38 38
13 6 17 24 22 20 9 7 3 5 3 7 3 4 10 12 16 27 23 22 20 14 15 22 25 34 38 46 46 45 45 45 46 47 44 43 45 45 45 45 47 46 46 45
10 4 10 14 20 22 11 11 11 7 4 6 3 11 18 14 13 24 27 25 25 20 20 13 20 27 32 39 44 42 41 42 42 43 42 44 42 44 48 52 53 55 55 53
6 6 5 10 12 20 19 16 5 5 4 4 7 9 11 25 21 18 22 27 26 22 20 21 18 15 21 29 34 36 38 38 42 42 44 44 46 46 47 48 49 51 55 57
6 4 3 4 10 24 22 20 11 6 6 4 3 4 15 17 22 20 17 15 21 21 20 18 19 20 19 18 19 24 32 35 34 34 37 43 44 41 43 45 45 40 44 49
10 3 8 7 1 12 13 17 16 5 6 7 4 6 18 13 22 23 22 17 6 11 18 16 15 15 17 20 23 20 21 26 25 29 32 34 38 36 34 33 31 30 30 36
7 4 5 1 1 4 14 13 10 6 4 9 3 8 13 10 17 21 24 23 16 10 11 6 8 10 13 15 16 21 21 21 22 23 23 26 25 34 35 29 38 36 37 33
8 3 1 1 5 8 9 9 7 5 3 6 8 12 14 13 15 18 20 23 23 26 26 24 9 3 7 10 13 10 12 14 15 16 17 17 17 20 27 29 35 37 36 34
6 1 3 4 4 1 5 6 6 3 4 3 6 9 11 13 16 16 17 16 15 14 15 16 19 23 24 11 13 11 8 6 5 4 5 8 11 15 16 19 19 20 21 24
3 1 2 2 3 6 7 5 6 8 9 9 6 6 5 6 6 13 14 15 15 17 17 18 18 19 20 20 21 20 22 22 17 22 14 16 14 12 15 18 20 19 20 21
4 2 2 3 2 11 4 7 7 6 4 2 1 3 8 10 13 16 19 21 21 21 22 22 22 23 22 23 22 22 24 22 22 25 25 22 20 26 25 22 23 21 21 23
6 4 2 3 6 3 7 8 6 3 3 4 6 7 9 15 18 20 18 21 24 25 25 25 26 25 26 26 27 28 28 28 28 27 29 27 27 25 25 26 34 33 37 27
8 6 3 3 4 7 8 15 13 7 8 9 7 8 15 21 21 14 15 15 17 22 25 27 28 30 31 31 32 31 29 31 31 29 28 29 30 31 30 30 32 34 34 35
12 10 7 5 3 5 6 13 11 8 11 7 8 14 22 16 20 22 22 21 19 19 22 26 29 31 33 34 35 35 33 31 31 32 30 30 29 30 32 31 34 34 34 34
17 14 16 12 7 8 11 13 12 6 4 5 15 16 15 18 20 23 23 23 26 28 28 28 29 31 32 32 34 34 33 32 32 31 32 33 33 33 33 35 35 35 37 37
14 11 9 12 8 7 9 12 11 9 10 15 13 12 15 18 22 25 27 28 29 30 28 27 29 29 29 30 31 31 31 32 33 34 36 36 36 38 39 40 38 38 38 39
12 15 7 11 6 6 7 11 14 14 15 13 9 12 18 20 22 24 25 27 29 30 30 28 25 24 24 25 27 26 27 30 32 34 37 39 40 40 41 43 44 45 44 43
18 17 18 16 12 14 15 14 16 17 11 8 9 14 16 20 24 26 26 28 29 31 29 27 23 18 16 19 21 23 25 28 31 33 35 36 38 39 40 41 42 46 48 49
18 19 20 22 19 21 22 20 18 12 8 6 9 12 17 21 24 28 29 29 29 27 23 20 18 18 17 16 16 18 21 24 26 28 30 31 33 35 37 39 40 42 43 46
24 26 27 25 18 16 13 13 12 10 7 6 8 11 15 20 26 29 28 28 27 25 21 18 17 19 20 22 23 23 25 29 31 30 30 30 32 34 34 36 37 36 39 40
Wind_Direction
6 18 6 352 331 313 305 299 292 300 300 295 281 276 261 253 254 244 237 236 235 237 217 222 228 225 208 212 212 210 216 218 219 224 228 229 229 229 230 230 231 231 232 233
19 17 3 339 325 315 305 303 296 299 305 297 286 284 274 265 249 251 266 246 239 237 231 220 222 226 220 220 218 215 215 215 218 221 226 229 230 231 232 234 234 236 237 238
24 2 332 331 327 322 310 306 302 295 298 297 283 288 275 290 248 246 254 252 242 240 227 227 225 224 229 226 224 220 218 215 217 221 226 229 229 229 230 232 233 235 239 242
7 2 340 333 336 325 302 305 305 296 284 280 313 293 237 353 185 219 240 241 245 243 238 221 222 219 222 227 223 224 219 219 222 225 228 230 236 235 234 236 237 239 241 244
8 359 356 345 339 326 291 305 308 302 276 288 285 260 299 184 139 194 215 234 240 245 236 230 214 218 218 223 223 224 226 226 230 234 234 234 233 233 235 234 236 239 242 246
5 346 350 346 339 343 343 331 315 304 277 260 268 231 34 31 38 81 95 206 226 230 232 231 223 219 215 220 224 228 226 229 233 235 235 236 237 237 238 237 235 240 244 244
40 31 5 0 12 356 353 3 351 308 193 256 358 204 39 54 69 63 86 96 161 212 220 225 219 220 223 225 222 223 229 230 231 234 235 239 240 242 242 244 244 243 248 249
14 9 19 22 13 344 2 310 314 307 314 298 217 186 23 67 60 81 84 90 106 139 191 209 217 219 221 223 223 224 227 232 235 236 235 236 239 242 243 245 249 247 246 246
2 9 40 17 29 27 354 357 283 279 286 281 84 38 48 77 75 102 100 94 93 98 106 150 193 212 219 224 227 229 229 229 234 236 235 235 234 236 239 239 243 245 246 248
347 308 349 20 32 37 24 11 1 323 6 341 71 45 8 28 44 34 94 94 96 100 103 109 125 165 198 209 216 219 226 227 228 231 229 230 230 234 233 234 239 243 244 245
355 314 294 344 17 17 15 18 17 335 29 329 24 72 14 24 30 41 38 56 94 99 99 102 113 125 138 164 194 205 212 217 219 226 232 233 233 237 239 241 244 251 250 250
352 320 314 344 159 23 27 17 18 26 350 341 345 61 3 7 24 33 23 41 35 51 102 113 117 126 139 139 136 168 197 204 208 219 226 234 238 239 244 242 246 244 251 249
357 336 332 333 352 357 25 25 12 2 13 19 33 343 358 23 34 30 26 20 22 31 12 71 127 151 147 136 132 140 148 174 182 200 206 212 213 228 237 230 231 237 239 233
359 350 332 249 292 323 2 23 20 23 47 65 60 41 53 45 40 36 33 27 26 10 7 10 308 257 197 165 150 147 142 143 153 163 175 185 199 213 230 238 240 241 243 247
342 325 352 334 322 340 34 21 17 63 130 107 113 64 49 38 25 14 11 10 8 8 7 356 358 353 330 315 315 276 266 234 217 258 234 203 193 191 205 218 223 227 232 234
308 250 127 116 44 139 99 102 89 99 115 119 98 48 9 345 354 6 354 347 343 343 342 338 337 329 334 336 331 333 328 319 296 261 268 275 268 259 235 218 223 233 236 239
205 178 143 166 2 160 169 147 123 130 142 194 246 304 311 315 330 338 325 318 323 327 327 324 319 318 316 313 312 305 308 307 309 308 304 301 294 275 265 271 262 252 250 253
184 178 172 178 136 197 184 191 190 206 251 256 239 259 298 314 317 318 310 305 308 308 305 305 307 305 304 303 301 299 297 297 299 300 297 294 291 285 280 291 285 282 265 262
196 190 201 199 250 258 235 201 200 217 251 255 252 299 311 313 313 320 321 314 299 297 303 303 301 299 296 295 295 293 296 294 291 293 290 286 287 287 287 285 279 274 272 277
208 212 211 201 243 224 195 197 204 248 271 259 271 305 315 320 324 320 317 316 311 308 308 306 304 302 299 295 292 291 290 288 288 293 291 285 283 285 284 282 278 276 274 269
200 218 227 231 247 262 202 202 225 229 221 243 302 315 321 324 323 325 323 316 310 310 308 305 302 300 298 297 294 293 292 288 289 291 289 289 286 284 282 280 279 278 276 273
207 204 207 212 221 259 198 200 217 254 283 306 311 314 323 319 317 318 318 315 313 312 308 305 304 299 296 293 293 291 292 294 295 293 293 292 290 286 283 280 278 277 276 274
212 215 216 213 231 224 228 266 279 290 306 305 307 322 320 323 326 326 326 322 319 315 312 310 306 302 294 294 296 295 293 293 292 292 292 292 289 287 285 283 280 279 276 274
230 234 233 244 261 264 261 268 277 288 287 282 311 317 327 336 334 333 331 329 326 322 318 315 317 314 304 303 304 306 303 301 300 297 295 292 290 289 287 284 282 278 276 273
245 241 248 253 264 270 264 267 262 258 254 282 306 323 334 335 336 335 332 332 332 330 329 327 328 329 329 328 326 326 326 323 321 316 309 303 297 292 287 284 285 284 281 277
260 262 254 266 270 262 255 247 227 227 238 275 313 329 336 340 345 343 334 334 335 335 333 332 332 330 328 329 329 328 327 326 324 321 318 311 306 303 297 289 284 284 283 280
Height
3079 3081 3080 3081 3080 3079 3076 3073 3069 3067 3068 3066 3061 3055 3059 3063 3065 3067 3070 3073 3076 3081 3091 3099 3103 3105 3110 3114 3120 3123 3128 3132 3136 3139 3143 3147 3153 3158 3161 3165 3169 3171 3173 3175
3081 3081 3080 3079 3078 3075 3071 3069 3062 3061 3062 3061 3056 3049 3052 3056 3059 3064 3066 3066 3068 3072 3080 3086 3094 3098 3103 3107 3113 3117 3120 3125 3130 3133 3137 3141 3146 3150 3154 3158 3163 3166 3168 3170
3079 3081 3079 3077 3074 3070 3069 3066 3060 3058 3057 3058 3054 3045 3047 3048 3049 3060 3058 3057 3059 3061 3067 3077 3085 3090 3095 3099 3105 3110 3114 3119 3123 3126 3130 3134 3136 3139 3143 3149 3154 3158 3161 3164
3079 3079 3077 3075 3073 3069 3060 3062 3058 3054 3057 3055 3053 3046 3044 3043 3044 3048 3048 3050 3052 3055 3059 3068 3074 3080 3085 3091 3097 3103 3108 3113 3116 3120 3124 3126 3130 3133 3138 3144 3149 3151 3154 3157
3081 3078 3075 3072 3070 3065 3058 3057 3054 3053 3054 3055 3050 3050 3044 3039 3039 3042 3041 3044 3046 3050 3054 3059 3066 3072 3077 3081 3086 3092 3099 3105 3109 3113 3117 3120 3123 3127 3132 3136 3138 3142 3146 3149
3078 3077 3076 3071 3067 3063 3058 3055 3054 3053 3055 3053 3044 3045 3043 3039 3039 3038 3039 3039 3041 3043 3047 3052 3058 3066 3069 3074 3079 3084 3088 3095 3100 3104 3109 3112 3117 3122 3124 3129 3132 3134 3137 3139
3079 3078 3076 3072 3065 3062 3060 3057 3055 3053 3052 3045 3042 3045 3045 3042 3040 3039 3036 3038 3038 3040 3042 3046 3050 3056 3062 3067 3070 3076 3082 3087 3091 3095 3100 3105 3110 3114 3117 3120 3123 3125 3128 3131
3080 3079 3076 3074 3070 3065 3061 3060 3059 3053 3050 3042 3042 3043 3050 3046 3044 3039 3039 3038 3038 3036 3038 3040 3043 3048 3054 3060 3064 3068 3073 3077 3082 3086 3091 3095 3098 3102 3105 3108 3112 3114 3116 3120
3080 3079 3078 3076 3072 3068 3063 3061 3058 3056 3051 3048 3045 3047 3048 3048 3046 3037 3036 3038 3037 3039 3038 3038 3038 3042 3047 3052 3057 3060 3064 3067 3071 3075 3079 3084 3087 3090 3093 3096 3098 3101 3103 3107
3081 3079 3077 3076 3074 3071 3067 3064 3060 3056 3054 3047 3052 3054 3055 3049 3047 3045 3040 3039 3039 3040 3040 3038 3037 3037 3040 3043 3047 3051 3055 3057 3060 3064 3069 3072 3075 3079 3082 3084 3086 3088 3091 3093
3079 3079 3078 3076 3074 3071 3067 3063 3061 3060 3060 3055 3051 3061 3058 3055 3052 3048 3046 3045 3040 3041 3042 3041 3039 3037 3037 3038 3041 3042 3044 3048 3052 3055 3057 3060 3064 3067 3070 3073 3075 3078 3079 3082
3079 3077 3075 3075 3074 3074 3071 3067 3064 3064 3065 3061 3060 3064 3060 3057 3054 3050 3048 3047 3046 3044 3042 3042 3042 3041 3038 3035 3034 3038 3039 3041 3045 3047 3048 3051 3054 3057 3060 3063 3066 3069 3072 3073
3078 3076 3075 3074 3076 3075 3071 3069 3067 3065 3065 3064 3062 3064 3060 3059 3057 3054 3052 3049 3047 3044 3047 3042 3044 3042 3039 3037 3036 3032 3033 3037 3039 3040 3041 3044 3046 3049 3052 3054 3057 3060 3062 3063
3076 3075 3075 3077 3076 3076 3072 3069 3068 3066 3066 3067 3067 3066 3061 3060 3059 3056 3055 3053 3050 3048 3044 3045 3045 3043 3041 3037 3035 3036 3036 3035 3036 3036 3038 3039 3041 3043 3046 3045 3048 3049 3052 3053
3075 3075 3073 3073 3073 3073 3072 3071 3068 3067 3067 3067 3068 3066 3063 3060 3058 3056 3056 3055 3054 3053 3050 3051 3046 3041 3039 3039 3038 3035 3035 3034 3035 3036 3037 3036 3036 3035 3038 3040 3041 3042 3043 3042
3073 3073 3072 3072 3072 3072 3072 3071 3070 3068 3068 3068 3068 3067 3065 3063 3062 3060 3057 3055 3054 3052 3050 3048 3046 3045 3041 3037 3035 3035 3033 3030 3031 3031 3031 3033 3034 3034 3033 3031 3033 3034 3035 3036
3070 3070 3071 3071 3070 3071 3073 3070 3070 3070 3069 3069 3069 3067 3065 3064 3063 3061 3058 3055 3053 3050 3047 3044 3042 3040 3037 3034 3033 3032 3031 3028 3026 3026 3027 3026 3026 3025 3025 3025 3026 3026 3026 3027
3068 3068 3069 3069 3070 3071 3067 3067 3068 3068 3067 3067 3066 3066 3065 3063 3061 3059 3056 3054 3050 3047 3044 3041 3038 3035 3031 3029 3028 3025 3024 3021 3021 3021 3019 3018 3018 3018 3017 3017 3015 3018 3018 3018
3065 3066 3067 3068 3066 3064 3063 3063 3064 3065 3065 3064 3064 3064 3062 3059 3057 3056 3052 3049 3046 3042 3039 3036 3033 3029 3026 3023 3020 3017 3014 3013 3013 3014 3013 3012 3010 3009 3006 3005 3007 3007 3005 3006
3062 3063 3065 3065 3064 3061 3058 3059 3061 3062 3062 3060 3060 3059 3057 3054 3052 3049 3046 3043 3042 3039 3035 3031 3028 3024 3020 3016 3012 3009 3008 3007 3005 3004 3003 3004 3001 2998 2997 2996 2999 2997 2996 2996
3057 3059 3060 3061 3060 3055 3054 3056 3058 3061 3062 3057 3056 3054 3052 3050 3048 3044 3040 3038 3035 3031 3028 3025 3021 3017 3012 3009 3005 3003 3000 2998 2997 2996 2994 2991 2989 2988 2987 2988 2987 2985 2984 2984
3051 3054 3054 3056 3056 3052 3050 3053 3055 3054 3053 3052 3051 3050 3048 3046 3044 3040 3036 3032 3028 3024 3021 3018 3013 3009 3005 3002 2998 2996 2993 2990 2988 2986 2983 2980 2978 2977 2975 2975 2975 2974 2972 2972
3048 3047 3047 3049 3047 3047 3047 3048 3048 3048 3048 3047 3047 3045 3044 3042 3039 3035 3030 3025 3021 3016 3012 3008 3006 3002 2999 2995 2991 2989 2986 2984 2981 2977 2973 2969 2967 2965 2962 2960 2959 2959 2958 2957
3040 3041 3040 3043 3042 3042 3043 3043 3043 3043 3043 3043 3042 3041 3040 3037 3034 3030 3025 3020 3015 3009 3004 3000 2996 2995 2993 2989 2986 2982 2979 2976 2972 2968 2964 2960 2956 2953 2950 2948 2946 2945 2943 2942
3035 3035 3034 3034 3036 3037 3037 3037 3038 3039 3039 3039 3038 3037 3035 3033 3029 3025 3020 3015 3010 3004 2999 2994 2991 2988 2986 2984 2980 2977 2973 2969 2965 2961 2956 2951 2947 2943 2939 2936 2933 2930 2927 2925
3027 3027 3027 3028 3030 3030 3031 3031 3033 3034 3035 3036 3036 3034 3031 3028 3024 3020 3016 3010 3005 3000 2996 2992 2988 2985 2982 2978 2974 2971 2968 2963 2958 2953 2948 2943 2938 2933 2928 2923 2921 2918 2913 2910